Universal City, TX

6:12 AM CDT on September 28, 2016 (GMT -0500)
Randolph Air Force Base

Weather History for KRND - February, 2013

Change the Weather History Date:

Tuesday, February 5, 2013

  Actual Average Record
Temperature  
Mean Temperature 66 °F -  
Max Temperature 81 °F 61 °F 82 °F (2008)
Min Temperature 50 °F 43 °F 28 °F (2011)
Growing Degree Days 16 (Base 50)    
Moisture  
Dew Point 50 °F    
Average Humidity 78    
Maximum Humidity 100    
Minimum Humidity 18    
Precipitation  
Precipitation 0.00 in - - ()
Sea Level Pressure  
Sea Level Pressure 29.90 in    
Wind  
Wind Speed 5 mph (WNW)    
Max Wind Speed 12 mph    
Max Gust Speed -    
Visibility 6 miles    
Events Fog , Rain    
Averages and records for this station are not official NWS values.
T = Trace of Precipitation, MM = Missing Value Source: NWS Daily Summary

Daily Weather History Graph

Daily Weather History Graph

Search for Another Location

Airport or City:

Trip Planner

Search our weather history database for the weather conditions in past years. The results will help you decide how hot, cold, wet, or windy it might be!

Date:

Astronomy

Feb. 05, 2013 Rise Set
Actual Time 7:19 AM CST 6:14 PM CST
Civil Twilight 6:55 AM CST 6:39 PM CST
Nautical Twilight 6:26 AM CST 7:07 PM CST
Astronomical Twilight 5:58 AM CST 7:35 PM CST
Moon 2:55 AM CST (2/5) 1:41 PM CST (2/5)
Length of Visible Light 11h 44m
Length of Day
10h 54m
Waning Crescent, 26% of the Moon is Illuminated
Feb 5
Waning Crescent
Feb 10
New
Feb 17
First Quarter
Feb 25
Full
Mar 4
Last Quarter

Hourly Weather History & Observations

Time (CST) Temp. Dew Point Humidity Pressure Visibility Wind Dir Wind Speed Gust Speed Precip Events Conditions
12:55 AM 52.5 °F 52.2 °F 99% 29.87 in 10.0 mi NNW 4.6 mph - N/A   Clear
1:55 AM 52.2 °F 52.0 °F 99% 29.88 in 10.0 mi Calm Calm - N/A   Clear
2:54 AM 51.8 °F 50.0 °F 94% 29.87 in 10.0 mi NNW 3.5 mph - N/A   Partly Cloudy
3:03 AM 51.8 °F 51.8 °F 100% 29.87 in 10.0 mi NW 3.5 mph - N/A   Mostly Cloudy
3:26 AM 51.8 °F 51.8 °F 100% 29.87 in 10.0 mi NW 3.5 mph - N/A   Mostly Cloudy
3:55 AM 59.5 °F 59.5 °F 100% 29.87 in 9.0 mi SW 5.8 mph - N/A   Overcast
4:02 AM 60.8 °F 60.8 °F 100% 29.87 in 5.0 mi WSW 5.8 mph - N/A   Overcast
4:04 AM 60.8 °F 60.8 °F 100% 29.87 in 4.0 mi WSW 5.8 mph - N/A   Overcast
4:05 AM 60.8 °F 60.8 °F 100% 29.87 in 4.0 mi WSW 5.8 mph - N/A   Overcast
4:06 AM 60.8 °F 60.8 °F 100% 29.87 in 4.0 mi SW 5.8 mph - N/A   Overcast
4:10 AM 60.8 °F 60.8 °F 100% 29.86 in 2.5 mi SW 5.8 mph - N/A   Overcast
4:13 AM 60.8 °F 60.8 °F 100% 29.86 in 2.0 mi SW 5.8 mph - N/A   Overcast
4:14 AM 60.8 °F 60.8 °F 100% 29.86 in 1.8 mi SW 5.8 mph - N/A   Overcast
4:15 AM 60.8 °F 60.8 °F 100% 29.86 in 1.8 mi SW 6.9 mph - N/A   Overcast
4:16 AM 60.8 °F 60.8 °F 100% 29.86 in 1.5 mi WSW 6.9 mph - N/A   Overcast
4:18 AM 60.8 °F 60.8 °F 100% 29.86 in 1.8 mi WSW 5.8 mph - N/A   Mostly Cloudy
4:19 AM 60.8 °F 60.8 °F 100% 29.86 in 1.8 mi WSW 5.8 mph - N/A   Mostly Cloudy
4:21 AM 59.0 °F 59.0 °F 100% 29.86 in 2.0 mi West 5.8 mph - N/A   Mostly Cloudy
4:24 AM 59.0 °F 59.0 °F 100% 29.86 in 3.0 mi West 4.6 mph - N/A   Mostly Cloudy
4:26 AM 59.0 °F 59.0 °F 100% 29.86 in 4.0 mi NW 4.6 mph - N/A   Mostly Cloudy
4:27 AM 59.0 °F 59.0 °F 100% 29.86 in 5.0 mi NNW 4.6 mph - N/A   Mostly Cloudy
4:29 AM 57.2 °F 57.2 °F 100% 29.86 in 7.0 mi NW 4.6 mph - N/A   Mostly Cloudy
4:37 AM 51.8 °F 51.8 °F 100% 29.87 in 4.0 mi WNW 4.6 mph - N/A   Mostly Cloudy
4:39 AM 51.8 °F 51.8 °F 100% 29.87 in 2.5 mi WNW 3.5 mph - N/A   Mostly Cloudy
4:41 AM 51.8 °F 51.8 °F 100% 29.87 in 1.5 mi NW 4.6 mph - N/A   Mostly Cloudy
4:42 AM 51.8 °F 51.8 °F 100% 29.87 in 1.2 mi NNW 4.6 mph - N/A   Mostly Cloudy
4:43 AM 51.8 °F 51.8 °F 100% 29.87 in 1.2 mi NNW 5.8 mph - N/A   Mostly Cloudy
4:44 AM 51.8 °F 51.8 °F 100% 29.87 in 1.0 mi NNW 5.8 mph - N/A   Mist
4:46 AM 51.8 °F 51.8 °F 100% 29.87 in 1.2 mi NNW 6.9 mph - N/A   Mostly Cloudy
4:50 AM 51.8 °F 51.8 °F 100% 29.87 in 0.8 mi NW 4.6 mph - N/A   Mist
4:52 AM 51.8 °F 51.8 °F 100% 29.87 in 0.5 mi NNW 4.6 mph - N/A Fog Fog
4:53 AM 51.8 °F 51.8 °F 100% 29.87 in 0.5 mi NW 5.8 mph - N/A Fog Fog
4:54 AM 51.8 °F 51.8 °F 100% 29.87 in 0.5 mi NNW 5.8 mph - N/A Fog Fog
4:59 AM 51.8 °F 51.8 °F 100% 29.87 in 0.5 mi NW 5.8 mph - N/A Fog Fog
5:01 AM 51.8 °F 51.8 °F 100% 29.87 in 0.5 mi NW 5.8 mph - N/A Fog Fog
5:02 AM 51.8 °F 51.8 °F 100% 29.87 in 0.8 mi NW 5.8 mph - N/A   Mist
5:04 AM 50.0 °F 50.0 °F 100% 29.87 in 0.8 mi NW 5.8 mph - N/A   Mist
5:05 AM 50.0 °F 50.0 °F 100% 29.87 in 0.8 mi NW 6.9 mph - N/A   Mist
5:06 AM 50.0 °F 50.0 °F 100% 29.87 in 1.0 mi NW 6.9 mph - N/A   Mist
5:07 AM 50.0 °F 50.0 °F 100% 29.87 in 1.2 mi NW 6.9 mph - N/A   Partly Cloudy
5:08 AM 50.0 °F 50.0 °F 100% 29.87 in 1.5 mi NW 6.9 mph - N/A   Partly Cloudy
5:09 AM 50.0 °F 50.0 °F 100% 29.88 in 1.8 mi NW 6.9 mph - N/A   Partly Cloudy
5:10 AM 50.0 °F 50.0 °F 100% 29.87 in 2.0 mi NW 6.9 mph - N/A   Partly Cloudy
5:11 AM 50.0 °F 50.0 °F 100% 29.88 in 3.0 mi NW 6.9 mph - N/A   Partly Cloudy
5:13 AM 50.0 °F 50.0 °F 100% 29.88 in 5.0 mi NW 6.9 mph - N/A   Clear
5:55 AM 50.7 °F 50.7 °F 100% 29.89 in 10.0 mi NNW 3.5 mph - N/A   Clear
6:55 AM 50.0 °F 50.0 °F 100% 29.91 in 10.0 mi Calm Calm - N/A   Scattered Clouds
7:55 AM 50.5 °F 50.4 °F 99% 29.93 in 10.0 mi NNW 5.8 mph - N/A   Scattered Clouds
8:55 AM 57.0 °F 48.6 °F 73% 29.94 in 10.0 mi NNW 11.5 mph - N/A   Clear
9:55 AM 65.5 °F 46.8 °F 51% 29.96 in 10.0 mi Calm Calm - N/A   Clear
10:32 AM 71.6 °F 46.4 °F 41% 29.97 in 10.0 mi Variable 3.5 mph - N/A   Clear
10:55 AM 73.8 °F 43.0 °F 33% 29.97 in 10.0 mi North 6.9 mph - N/A   Clear
11:55 AM 76.6 °F 39.7 °F 27% 29.96 in 10.0 mi North 4.6 mph - N/A   Clear
12:55 PM 80.2 °F 36.3 °F 21% 29.93 in 10.0 mi Variable 3.5 mph - N/A   Clear
1:55 PM 79.2 °F 34.7 °F 20% 29.91 in 10.0 mi NW 5.8 mph - N/A   Clear
2:55 PM 80.8 °F 32.9 °F 18% 29.88 in 10.0 mi NW 6.9 mph - N/A   Clear
3:55 PM 81.0 °F 33.6 °F 18% 29.86 in 10.0 mi Variable 3.5 mph - N/A   Clear
4:18 PM 78.8 °F 33.8 °F 20% 29.86 in 10.0 mi Calm Calm - N/A   Light Drizzle
4:27 PM 78.8 °F 33.8 °F 20% 29.86 in 10.0 mi Calm Calm - N/A   Clear
4:55 PM 75.7 °F 40.8 °F 29% 29.87 in 10.0 mi South 6.9 mph - 0.00 in   Clear
5:55 PM 73.4 °F 40.6 °F 31% 29.88 in 10.0 mi South 4.6 mph - N/A   Clear
6:55 PM 67.1 °F 42.8 °F 41% 29.89 in 10.0 mi ENE 6.9 mph - N/A   Clear
7:55 PM 67.8 °F 42.4 °F 40% 29.92 in 10.0 mi East 4.6 mph - N/A   Mostly Cloudy
8:55 PM 66.6 °F 42.4 °F 42% 29.95 in 10.0 mi Calm Calm - N/A   Mostly Cloudy
9:37 PM 66.2 °F 42.8 °F 43% 29.95 in 10.0 mi Calm Calm - N/A   Light Drizzle
9:54 PM 66.2 °F 46.4 °F 49% 29.94 in 10.0 mi NE 4.6 mph - N/A   Partly Cloudy
10:03 PM 64.4 °F 48.2 °F 56% 29.95 in 10.0 mi NNE 4.6 mph - N/A Rain Light Rain
10:17 PM 64.4 °F 46.4 °F 52% 29.94 in 10.0 mi NE 6.9 mph - N/A   Scattered Clouds
10:52 PM 66.2 °F 50.0 °F 56% 29.97 in 10.0 mi NW 4.6 mph - N/A   Light Drizzle
10:55 PM 64.9 °F 50.4 °F 59% 29.97 in 10.0 mi NW 4.6 mph - 0.00 in   Light Drizzle
11:09 PM 66.2 °F 50.0 °F 56% 29.96 in 10.0 mi SW 5.8 mph - N/A   Partly Cloudy
11:13 PM 64.4 °F 50.0 °F 59% 29.97 in 10.0 mi SSW 4.6 mph - N/A Rain Light Rain
11:16 PM 64.4 °F 50.0 °F 59% 29.97 in 10.0 mi SW 4.6 mph - N/A Rain Light Rain
11:32 PM 64.4 °F 51.8 °F 64% 29.98 in 10.0 mi SW 8.1 mph - N/A   Partly Cloudy
11:42 PM 64.4 °F 50.0 °F 59% 29.97 in 10.0 mi WSW 5.8 mph - N/A Rain Light Rain
11:43 PM 64.4 °F 50.0 °F 59% 29.97 in 10.0 mi WSW 5.8 mph - N/A Rain Light Rain
11:55 PM 63.9 °F 52.2 °F 66% 29.98 in 10.0 mi WSW 6.9 mph - 0.00 in Rain Light Rain
11:58 PM 64.4 °F 51.8 °F 64% 29.98 in 10.0 mi SW 5.8 mph - N/A Rain Light Rain